• In Belarus
  • List of Countries
  • For 7 days
  • Water Temperature
  • Satellite Maps
  • Weather Map
  • Weather Widgets
  • user-avatar
    Login

    Hourly Weather Tyrgowishte

    Today, 25 November, Saturday

    Time Temperature Precipitation Wind Pressure Humidity
    00:00 +8°C° 0 mm 1 mps 748 mmHg 86%
    01:00 +8°C° 0 mm 1 mps 748 mmHg 87%
    02:00 +7°C° 0 mm 1 mps 749 mmHg 88%
    03:00 +7°C° 0 mm 1 mps 748 mmHg 89%
    04:00 +7°C° 0 mm 1 mps 748 mmHg 89%
    05:00 +7°C° 0 mm 1 mps 748 mmHg 90%
    06:00 +7°C° 0 mm 1 mps 748 mmHg 90%
    07:00 +7°C° 0 mm 1 mps 748 mmHg 91%
    08:00 +7°C° 0 mm 1 mps 748 mmHg 91%
    09:00 +9°C° 0 mm 1 mps 748 mmHg 85%
    10:00 +10°C° 0 mm 2 mps 748 mmHg 79%
    11:00 +12°C° 0 mm 2 mps 748 mmHg 73%
    12:00 +13°C° 0 mm 2 mps 748 mmHg 70%
    13:00 +13°C° 0 mm 3 mps 748 mmHg 67%
    14:00 +13°C° 0 mm 3 mps 747 mmHg 64%
    15:00 +12°C° 0 mm 3 mps 747 mmHg 69%
    16:00 +11°C° 0 mm 3 mps 747 mmHg 74%
    17:00 +10°C° 0 mm 2 mps 746 mmHg 80%
    18:00 +10°C° 0 mm 2 mps 746 mmHg 83%
    19:00 +9°C° 0 mm 3 mps 746 mmHg 86%
    20:00 +9°C° 0 mm 3 mps 746 mmHg 90%
    21:00 +8°C° 0 mm 3 mps 746 mmHg 90%
    22:00 +8°C° 0 mm 2 mps 746 mmHg 91%
    23:00 +8°C° 0 mm 2 mps 746 mmHg 92%

    Tomorrow, 26 November, Sunday

    Time Temperature Precipitation Wind Pressure Humidity
    00:00 +8°C° 0 mm 2 mps 746 mmHg 92%
    01:00 +7°C° 0 mm 2 mps 745 mmHg 92%
    02:00 +7°C° 0 mm 2 mps 745 mmHg 92%
    03:00 +7°C° 0 mm 2 mps 745 mmHg 92%
    04:00 +7°C° 0 mm 2 mps 745 mmHg 92%
    05:00 +8°C° 0 mm 1 mps 744 mmHg 92%
    06:00 +8°C° 0 mm 1 mps 744 mmHg 92%
    07:00 +7°C° 0 mm 1 mps 744 mmHg 93%
    08:00 +7°C° 0 mm 1 mps 744 mmHg 93%
    09:00 +9°C° 0 mm 1 mps 744 mmHg 86%
    10:00 +10°C° 0 mm 2 mps 744 mmHg 79%
    11:00 +12°C° 0 mm 2 mps 744 mmHg 72%
    12:00 +13°C° 0 mm 2 mps 744 mmHg 69%
    13:00 +14°C° 0 mm 2 mps 743 mmHg 66%
    14:00 +14°C° 0 mm 2 mps 743 mmHg 63%
    15:00 +13°C° 0 mm 2 mps 743 mmHg 68%
    16:00 +12°C° 0 mm 2 mps 743 mmHg 73%
    17:00 +11°C° 0 mm 1 mps 742 mmHg 78%
    18:00 +11°C° 0 mm 1 mps 742 mmHg 81%
    19:00 +10°C° 0 mm 1 mps 742 mmHg 84%
    20:00 +9°C° 0 mm 2 mps 742 mmHg 86%
    21:00 +10°C° 0 mm 1 mps 742 mmHg 88%
    22:00 +10°C° 0 mm 1 mps 742 mmHg 89%
    23:00 +10°C° 0 mm 1 mps 742 mmHg 91%

    Day after tomorrow, 27 November, Monday

    Time Temperature Precipitation Wind Pressure Humidity
    00:00 +9°C° 0 mm 1 mps 742 mmHg 91%
    01:00 +9°C° 0 mm 1 mps 742 mmHg 92%
    02:00 +9°C° 0 mm 1 mps 742 mmHg 93%
    03:00 +9°C° 0 mm 1 mps 741 mmHg 93%
    04:00 +9°C° 0 mm 1 mps 741 mmHg 93%
    05:00 +9°C° 0 mm 1 mps 741 mmHg 93%
    06:00 +9°C° 0.1 mm 1 mps 741 mmHg 94%
    07:00 +9°C° 0.1 mm 1 mps 741 mmHg 94%
    08:00 +9°C° 0.1 mm 1 mps 742 mmHg 94%
    09:00 +9°C° 0.2 mm 1 mps 742 mmHg 92%
    10:00 +10°C° 0.2 mm 1 mps 742 mmHg 89%
    11:00 +10°C° 0.2 mm 1 mps 742 mmHg 87%
    12:00 +9°C° 0.2 mm 2 mps 742 mmHg 86%
    13:00 +9°C° 0.2 mm 2 mps 741 mmHg 85%
    14:00 +9°C° 0.2 mm 2 mps 741 mmHg 84%
    15:00 +9°C° 0.5 mm 3 mps 741 mmHg 85%
    16:00 +9°C° 0.5 mm 3 mps 741 mmHg 87%
    17:00 +9°C° 0.5 mm 3 mps 741 mmHg 88%
    18:00 +7°C° 2.3 mm 4 mps 741 mmHg 89%
    19:00 +7°C° 2.3 mm 4 mps 741 mmHg 89%
    20:00 +6°C° 2.3 mm 5 mps 741 mmHg 90%
    21:00 +6°C° 3.2 mm 5 mps 741 mmHg 90%
    22:00 +6°C° 3.2 mm 5 mps 741 mmHg 91%
    23:00 +6°C° 3.2 mm 4 mps 741 mmHg 91%

    28 November, Tuesday

    Time Temperature Precipitation Wind Pressure Humidity
    00:00 +5°C° 1 mm 4 mps 740 mmHg 91%
    01:00 +5°C° 1 mm 4 mps 740 mmHg 91%
    02:00 +5°C° 1 mm 4 mps 740 mmHg 92%
    03:00 +5°C° 1.1 mm 4 mps 740 mmHg 92%
    04:00 +5°C° 1.1 mm 4 mps 740 mmHg 92%
    05:00 +5°C° 1.1 mm 4 mps 740 mmHg 92%
    06:00 +5°C° 2.6 mm 5 mps 740 mmHg 92%
    07:00 +3°C° 2.6 mm 5 mps 740 mmHg 92%
    08:00 +3°C° 2.6 mm 5 mps 740 mmHg 92%
    09:00 +3°C° 3.2 mm 5 mps 740 mmHg 91%
    10:00 +3°C° 3.2 mm 5 mps 740 mmHg 91%
    11:00 +2°C° 3.2 mm 5 mps 740 mmHg 91%
    12:00 +2°C° 2.1 mm 5 mps 740 mmHg 91%
    13:00 +2°C° 2.1 mm 5 mps 740 mmHg 92%
    14:00 +2°C° 2.1 mm 5 mps 740 mmHg 92%
    15:00 +2°C° 1.2 mm 5 mps 740 mmHg 92%
    16:00 +2°C° 1.2 mm 5 mps 740 mmHg 92%
    17:00 +2°C° 1.2 mm 5 mps 740 mmHg 93%
    18:00 +2°C° 1.2 mm 5 mps 740 mmHg 93%
    19:00 +2°C° 1.2 mm 5 mps 740 mmHg 93%
    20:00 +2°C° 1.2 mm 5 mps 740 mmHg 93%
    21:00 +3°C° 0.9 mm 4 mps 740 mmHg 93%
    22:00 +3°C° 0.9 mm 4 mps 740 mmHg 93%
    23:00 +3°C° 0.9 mm 4 mps 740 mmHg 93%

    29 November, Wednesday

    Time Temperature Precipitation Wind Pressure Humidity
    00:00 +3°C° 0.4 mm 4 mps 741 mmHg 93%
    01:00 +2°C° 0.4 mm 3 mps 741 mmHg 93%
    02:00 +2°C° 0.4 mm 3 mps 741 mmHg 93%
    03:00 +2°C° 0.3 mm 3 mps 741 mmHg 93%
    04:00 +2°C° 0.3 mm 3 mps 741 mmHg 93%
    05:00 +2°C° 0.3 mm 3 mps 741 mmHg 93%
    06:00 +3°C° 0.2 mm 2 mps 741 mmHg 93%
    07:00 +3°C° 0.2 mm 2 mps 742 mmHg 93%
    08:00 +3°C° 0.2 mm 2 mps 742 mmHg 93%
    09:00 +4°C° 0.1 mm 2 mps 742 mmHg 89%
    10:00 +5°C° 0.1 mm 2 mps 742 mmHg 85%
    11:00 +6°C° 0.1 mm 2 mps 743 mmHg 81%
    12:00 +7°C° 0 mm 2 mps 742 mmHg 78%
    13:00 +7°C° 0 mm 2 mps 742 mmHg 76%
    14:00 +9°C° 0 mm 1 mps 742 mmHg 73%
    15:00 +8°C° 0 mm 1 mps 742 mmHg 76%
    16:00 +8°C° 0 mm 1 mps 742 mmHg 78%
    17:00 +7°C° 0 mm 1 mps 743 mmHg 81%
    18:00 +7°C° 0 mm 1 mps 743 mmHg 82%
    19:00 +5°C° 0 mm 2 mps 743 mmHg 83%
    20:00 +5°C° 0 mm 2 mps 743 mmHg 84%
    21:00 +5°C° 0 mm 2 mps 743 mmHg 85%
    22:00 +5°C° 0 mm 2 mps 743 mmHg 85%
    23:00 +5°C° 0 mm 2 mps 743 mmHg 85%

    30 November, Thursday

    Time Temperature Precipitation Wind Pressure Humidity
    00:00 +4°C° 0 mm 2 mps 743 mmHg 86%
    01:00 +4°C° 0 mm 2 mps 743 mmHg 87%
    02:00 +4°C° 0 mm 2 mps 743 mmHg 89%
    03:00 +4°C° 0 mm 2 mps 743 mmHg 89%
    04:00 +4°C° 0 mm 2 mps 742 mmHg 90%
    05:00 +4°C° 0 mm 2 mps 742 mmHg 91%
    06:00 +3°C° 0 mm 3 mps 742 mmHg 90%
    07:00 +3°C° 0 mm 3 mps 742 mmHg 89%
    08:00 +3°C° 0 mm 3 mps 742 mmHg 89%
    09:00 +5°C° 0 mm 4 mps 742 mmHg 84%
    10:00 +7°C° 0 mm 5 mps 742 mmHg 79%
    11:00 +9°C° 0 mm 6 mps 742 mmHg 75%
    12:00 +9°C° 0 mm 6 mps 741 mmHg 74%
    13:00 +10°C° 0 mm 7 mps 740 mmHg 73%
    14:00 +10°C° 0 mm 7 mps 740 mmHg 72%
    15:00 +10°C° 0 mm 7 mps 740 mmHg 74%
    16:00 +10°C° 0 mm 6 mps 739 mmHg 76%
    17:00 +10°C° 0 mm 6 mps 739 mmHg 78%
    18:00 +10°C° 0 mm 6 mps 739 mmHg 79%
    19:00 +10°C° 0 mm 6 mps 739 mmHg 79%
    20:00 +10°C° 0 mm 6 mps 739 mmHg 80%
    21:00 +10°C° 0.1 mm 6 mps 738 mmHg 81%
    22:00 +10°C° 0.1 mm 6 mps 738 mmHg 82%
    23:00 +10°C° 0.1 mm 6 mps 738 mmHg 83%
    Show more